Location: Marquette
(46.5440°N, 87.3950°W)
Time: 13:22:35
(UTC-04:00)

Daily predictions for brighter satellites

Satellite Brightness Start Highest point End
(mag) Time Altitude Azimuth Time Altitude Azimuth Time Altitude Azimuth
METEOR-M 4.4 19:14:47 10° SE 19:19:52 47° ENE 19:24:58 10° N
CZ-4C R/B 3.3 19:19:48 10° SSE 19:23:48 22° ESE 19:28:09 10° ENE
Cosmos 1484 Rocket 2.9 19:20:37 10° S 19:24:20 75° WSW 19:28:04 10° NNW
SL-16 R/B 4.0 19:19:46 10° NW 19:24:57 37° WSW 19:30:07 10° S
Cosmos 44 Rocket 4.3 19:21:54 10° S 19:25:45 26° ESE 19:29:37 10° ENE
Cosmos 1703 3.2 19:25:08 10° N 19:29:05 73° E 19:32:58 10° SSE
Lacrosse 5 rocket 3.2 19:25:41 10° WNW 19:29:19 24° NNW 19:32:49 10° NE
Cosmos 2333 4.4 19:26:14 10° NNW 19:31:49 51° ENE 19:37:24 10° SE
Sich 1 4.4 19:30:30 10° NNE 19:33:44 20° ENE 19:36:56 10° ESE
GENESIS II 4.2 19:31:03 10° SSW 19:35:00 71° SE 19:38:59 10° NE
RESURS DK-1 3.0 19:31:03 10° NW 19:35:10 62° WSW 19:39:14 10° SSE
COSMO-SKYMED 1 2.9 19:31:58 10° NNE 19:36:07 42° E 19:40:15 10° S
Cosmos 2237 4.2 19:30:33 10° NNW 19:36:20 80° ENE 19:42:03 10° SSE
Cosmos 1626 2.6 19:33:09 10° NNW 19:36:54 67° W 19:40:35 10° S
Cosmos 2366 rocket 4.0 19:31:24 10° S 19:37:36 90° SSW 19:43:48 10° N
Cosmos 1908 3.7 19:34:03 10° SSE 19:37:43 40° E 19:41:23 10° NNE
Cosmos 2237 Rocket 3.3 19:36:14 10° N 19:40:57 26° NE 19:45:23 11° ESE
Ariane Rocket 4.4 19:38:27 10° S 19:43:18 43° W 19:48:11 10° NNW
Gbstr 26 Del rocket 3.5 19:39:37 10° WNW 19:44:23 86° NNE 19:50:21 10° ESE
Aureole 1 Rocket 4.5 19:39:15 10° SW 19:45:00 49° WNW 19:49:24 10° N
Cosmos 2151 3.3 19:43:20 10° NNW 19:47:37 72° W 19:51:51 10° S
Cosmos 1805 Rocket 4.1 19:43:38 10° N 19:47:44 37° ENE 19:51:49 10° SE
H-2A R/B 4.0 19:44:45 10° ESE 19:47:48 22° ENE 19:50:53 10° NNE
CZ-2C R/B 4.0 19:47:18 10° N 19:51:49 68° WNW 19:56:13 10° SSW
Cosmos 2227 Rocket 3.7 19:49:05 10° SE 19:51:55 14° E 19:52:07 14° E
SL-16 R/B 3.8 19:48:57 10° N 19:52:30 17° NE 19:54:46 13° ENE
Cosmos 2058 3.5 19:50:22 10° NNW 19:54:31 61° W 19:58:35 10° S
Cosmos 1400 Rocket 4.4 19:52:33 10° NNW 19:56:21 40° W 20:00:04 10° SSW
Cosmos 1666 Rocket 4.3 19:53:03 10° N 19:56:56 30° ENE 20:00:46 10° SE
YAOGAN 1 3.4 19:56:29 10° S 20:00:43 54° W 20:05:00 10° NNW
Cosmos 2360 Rocket 3.4 19:56:50 10° NW 20:02:13 46° WSW 20:07:35 10° S
Cosmos 1633 Rocket 3.9 19:58:37 10° N 20:02:31 29° ENE 20:06:13 11° SE
ALOS 2.2 19:59:22 10° SSE 20:03:59 67° ENE 20:08:39 10° N
Cosmos 1300 3.6 20:01:23 10° SSE 20:04:35 26° E 20:07:49 10° NNE
Cosmos 1980 4.2 20:00:09 10° NNW 20:05:24 38° NE 20:09:17 17° ESE
GRACE-2 3.8 20:02:55 10° S 20:05:28 72° W 20:08:03 10° N
Cosmos 1269 Rocket 4.2 20:00:30 10° S 20:05:34 50° ESE 20:10:41 10° NNE
ATLAS 5 CENTAUR R/B 4.3 20:06:13 10° NNW 20:08:55 14° N 20:11:46 10° NE
Cosmos 1000 Rocket 4.4 20:03:07 10° N 20:09:22 74° E 20:15:31 10° SSE
GRACE-1 4.4 20:07:45 10° S 20:10:18 56° W 20:12:51 10° N
Aureole 2 Rocket 2.7 20:08:18 10° NNW 20:12:12 66° ENE 20:16:13 10° SSE
Cosmos 468 4.5 20:06:59 10° SSW 20:12:12 89° ESE 20:17:29 10° NNE
COSMOS 2428 2.8 20:07:17 10° NNW 20:13:00 81° WSW 20:18:41 10° SSE
Cosmos 1821 Rocket 4.0 20:07:34 10° S 20:13:37 60° E 20:19:47 10° NNE
Cosmos 1934 Rocket 4.2 20:07:43 10° SSE 20:13:44 47° E 20:19:46 10° NNE
SPOT 3 Rocket 3.8 20:09:30 10° S 20:14:41 72° WSW 20:19:56 10° NNW
Abrixas 3.6 20:14:07 10° SSW 20:15:20 20° S 20:15:20 20° S
Cosmos 2333 Rocket 2.2 20:10:17 10° NNW 20:16:00 61° ENE 20:21:36 10° SE
Cosmos 2239 Rocket 4.4 20:13:32 10° S 20:19:35 66° E 20:25:42 10° NNE
Cosmos 2219 3.2 20:15:01 10° S 20:20:41 63° ESE 20:26:22 10° NNE
CZ-4 R/B 4.1 20:18:03 10° SSW 20:21:24 23° W 20:24:44 10° NW
FENGYUN 3A 3.7 20:16:24 10° SSE 20:21:48 88° WSW 20:27:16 10° NNW
BREEZE-M DEB (TANK) 4.4 19:59:06 10° WNW 20:22:41 88° NNE 20:26:19 25° ESE
SKYMED 2 4.1 20:19:57 10° N 20:24:15 62° WNW 20:28:31 10° SSW
USA 234 4.1 20:20:48 19° ENE 20:24:55 38° N 20:30:50 10° NW
Cosmos 2221 2.8 20:22:13 10° SSW 20:26:31 72° W 20:30:55 10° N
BREEZE-M R/B 4.5 20:24:26 10° S 20:25:04 14° SSE 20:25:04 14° SSE
Iridium 4 Rocket 3.8 20:21:22 10° S 20:27:02 89° E 20:33:00 10° N
Cosmos 2297 Rocket 3.6 20:24:38 10° SSE 20:27:02 19° SE 20:27:02 19° SE
Cosmos 2098 Rocket 3.5 20:25:16 10° S 20:30:02 84° E 20:36:11 10° N
Cosmos 2084 3.0 20:26:22 10° NW 20:30:11 81° NE 20:31:39 36° SE
Cosmos 1110 Rocket 4.0 20:27:27 10° NNW 20:32:46 66° ENE 20:36:35 19° SE
Cosmos 44 3.0 20:29:51 10° SW 20:34:11 82° NW 20:37:05 21° NNE
Abrixas rocket 2.1 20:32:07 10° WNW 20:35:25 68° N 20:35:42 63° NE
USA 32 4.5 20:30:36 10° N 20:35:30 38° ENE 20:36:35 34° ESE
Meteor 2-10 3.9 20:32:24 10° S 20:37:20 60° E 20:42:25 10° NNE
Meteor 2-2 Rocket 4.4 20:33:42 10° SSE 20:39:07 48° E 20:44:31 10° NNE
BREEZE-M DEB (TANK) 3.1 20:29:07 10° W 20:39:29 86° S 20:41:01 41° E
Cosmos 2123 Rocket 3.9 20:34:48 10° N 20:41:04 74° E 20:47:20 10° SSE
Cosmos 1726 2.3 20:38:31 10° SSW 20:42:12 72° W 20:45:53 10° N
FengYun 1-2 T 4.1 20:39:13 10° SSE 20:44:43 87° ENE 20:50:14 10° NNW
SL-8 R/B 3.7 20:40:51 10° W 20:45:41 76° N 20:47:07 45° ENE
Cosmos 1605 Rocket 3.9 20:42:07 10° S 20:48:03 57° E 20:54:00 10° NNE
Cosmos 2219 Rocket 2.5 20:44:05 10° NNW 20:49:39 67° WSW 20:55:12 10° SSE
BREEZE-M DEB (TANK) 3.8 20:49:16 10° W 20:50:17 26° W 20:50:17 26° W
Cosmos 1470 Rocket 4.0 20:51:00 10° N 20:54:36 46° NE 20:54:36 46° NE
FREGAT/IRIS 3.6 20:56:22 45° WSW 20:56:27 45° W 20:59:21 10° NNW
Envisat 3.2 21:01:48 48° NE 21:01:48 48° NE 21:06:16 10° N
SJ-6B 3.1 21:06:28 59° SW 21:06:48 62° W 21:10:31 10° NNW
Cosmos 44 Rocket 4.0 21:02:28 10° WSW 21:07:01 48° NW 21:09:31 24° NNE
NOSS 0 Rocket 4.2 21:01:10 10° NNW 21:07:18 66° WSW 21:11:40 20° S
Lacrosse 5 rocket 3.2 21:06:26 10° NW 21:09:34 21° N 21:09:34 21° N
Resurs 01 Rocket 2.4 21:11:20 40° N 21:11:20 40° N 21:14:18 10° N
CZ-4C R/B 2.5 21:06:18 10° SW 21:11:35 67° NW 21:15:05 26° NNE
Sich 1 4.2 21:07:28 10° NNW 21:11:38 44° W 21:15:49 10° SSW
MOS 1-B Rocket 3.8 21:09:36 36° SSE 21:12:08 83° ENE 21:18:27 10° NNW
Thor Agena Rocket 3.9 21:07:59 10° N 21:13:02 62° WNW 21:18:00 10° SSW
Cosmos 1447 Rocket 4.4 21:12:51 10° N 21:19:14 80° E 21:21:16 46° SSE
H-2A R/B 4.4 21:19:07 15° SSW 21:21:53 33° W 21:25:29 10° NNW
BREEZE M DEB (TANK) 4.0 21:06:10 10° WNW 21:22:06 76° SSW 21:23:10 59° SE
Cosmos 2237 Rocket 2.5 21:19:50 10° NNW 21:25:30 64° WSW 21:27:16 43° S
USA 267 3.9 21:32:24 38° S 21:32:24 38° S 21:36:48 10° SSW
Cosmos 2227 Rocket 2.4 21:29:26 10° SSW 21:34:03 61° SSW 21:34:03 61° SSW
SL-16 R/B 2.5 21:31:57 10° NNW 21:36:40 58° N 21:36:40 58° N
Meteor 2-3 Rocket 4.1 21:44:09 10° NNW 21:49:51 62° W 21:50:10 61° WSW
CZ-3A R/B 3.7 21:36:34 10° WNW 21:55:30 86° NNE 21:56:32 70° ESE
ATLAS 5 CENTAUR R/B 3.9 21:51:01 10° NNW 21:54:05 22° N 21:54:05 22° N
Cosmos 2333 Rocket 4.3 21:55:22 10° NW 21:59:48 23° WSW 22:03:41 12° SSW
USA 234 3.6 22:08:10 58° N 22:08:10 58° N 22:13:47 10° NW
Cosmos 2297 Rocket 4.0 22:07:01 10° SW 22:08:58 22° SW 22:08:58 22° SW
CZ-4C R/B 4.4 22:56:51 10° WNW 23:00:19 22° NW 23:00:19 22° NW
